This is the latest recevied weather packets stored in our database for station/object DB0OHA-13. If no packets are shown the sender has not sent any weather packets the latest 10 day(s).
| Time | Temp. | Humidity | Pressure | Rain* | Wind** | Luminosity | Snow |
|---|---|---|---|---|---|---|---|
| 1777932670 | 13.33° C | 1% | 1011.8 hPa | 0 mm | - | 0 W/m² | - |
| 1777932069 | 13.33° C | 1% | 1011.9 hPa | 0 mm | - | 0 W/m² | - |
| 1777931469 | 13.33° C | 1% | 1011.9 hPa | 0 mm | - | 0 W/m² | - |
| 1777930869 | 13.33° C | 1% | 1012 hPa | 0 mm | - | 0 W/m² | - |
| 1777930269 | 13.33° C | 1% | 1012.1 hPa | 0 mm | - | 0 W/m² | - |
| 1777929069 | 13.33° C | 1% | 1012.5 hPa | 0.51 mm | - | 0 W/m² | - |
| 1777928474 | 13.33° C | 1% | 1012.7 hPa | 0.51 mm | - | 0 W/m² | - |
| 1777927873 | 13.33° C | 1% | 1012.7 hPa | 0.76 mm | - | 0 W/m² | - |
| 1777927274 | 13.33° C | 1% | 1012.8 hPa | 1.52 mm | - | 0 W/m² | - |
| 1777926673 | 13.33° C | 1% | 1012.8 hPa | 2.03 mm | - | 0 W/m² | - |
| 1777926073 | 13.33° C | 1% | 1012.9 hPa | 2.29 mm | - | 0 W/m² | - |
| 1777925474 | 13.33° C | 1% | 1013 hPa | 2.29 mm | - | 0 W/m² | - |
| 1777924873 | 13.89° C | 1% | 1012.9 hPa | 2.29 mm | - | 0 W/m² | - |
| 1777924273 | 13.89° C | 1% | 1012.9 hPa | 2.79 mm | - | 0 W/m² | - |
| 1777923673 | 13.89° C | 1% | 1013 hPa | 2.29 mm | - | 0 W/m² | - |
| 1777923073 | 13.89° C | 1% | 1012.7 hPa | 2.29 mm | - | 0 W/m² | - |
| 1777921873 | 14.44° C | 1% | 1012.3 hPa | 1.52 mm | - | 0 W/m² | - |
| 1777920673 | 15° C | 1% | 1012 hPa | 0.51 mm | - | 0 W/m² | - |
| 1777920073 | 15.56° C | 1% | 1012.4 hPa | 0.25 mm | - | 0 W/m² | - |
| 1777919473 | 16.11° C | 1% | 1012.4 hPa | 0 mm | - | 0 W/m² | - |
| 1777918872 | 16.67° C | 18% | 1012 hPa | 0 mm | - | 0 W/m² | - |
| 1777918272 | 16.67° C | 35% | 1011.8 hPa | 0 mm | - | 1 W/m² | - |
| 1777917072 | 16.67° C | 57% | 1011.1 hPa | 0 mm | - | 27 W/m² | - |
| 1777916472 | 16.67° C | 57% | 1011.2 hPa | 0 mm | - | 44 W/m² | - |
| 1777915872 | 16.67° C | 58% | 1011 hPa | 0 mm | - | 44 W/m² | - |
* Rain latest hour (hover to see other rain measurements)
** Current wind speed in m/s (hover to see current wind gust speed)